Location: Clover
(42.5131°N, 114.6874°W)
Time: 12:41:47
(UTC+00:00)

Explorer 7 - Pass Details

Date: 09 December 2025
Orbit: 433 x 550 km, 50.2° (Epoch: 13 January)

Event Time Altitude Azimuth Distance (km) Brightness Sun altitude
Rises 01:11:53 0° 193° (SSW) 2,452 10.6 -11.9°
Reaches altitude 10° 01:14:47 10° 167° (SSE) 1,563 9.2 -12.4°
Maximum altitude 01:16:43 14° 133° (SE) 1,317 8.5 -12.7°
Enters shadow 01:17:38 13° 116° (ESE) 1,370 8.4 -12.9°
